FW8871 Weather Reports


Display with metric or nautical units.
time (UTC)temp
F
wind
direction
speed
MPH
gust
MPH
rain 1hr
in
rain 24hr
in
rain mn
in
humidity
%
barometer
mb
20260510134604 47 21 12.0 21.0 0.02 0.03 0.02 89 1024.2
20260510134049 47 3 15.0 21.0 0.01 0.02 0.01 88 1024.0
20260510133548 48 353 14.0 21.0 0.01 0.02 0.01 86 1023.9
20260510133107 48 11 14.0 19.0 0.01 0.02 0.01 86 1023.7
20260510132548 48 348 12.0 17.0 0.01 0.02 0.01 87 1023.8
20260510132047 48 331 12.0 17.0 0.01 0.02 0.01 87 1023.7
20260510131601 48 19 12.0 16.0 0.01 0.02 0.01 87 1023.6
20260510131047 48 350 12.0 17.0 0.01 0.02 0.01 86 1023.5
20260510130549 48 10 11.0 17.0 0.00 0.01 0.00 86 1023.3
20260510130052 49 3 12.0 20.0 0.00 0.01 0.00 86 1023.3
20260510125546 49 4 14.0 22.0 0.00 0.01 0.00 86 1023.1
20260510125047 50 11 14.0 22.0 0.00 0.01 0.00 85 1023.0
20260510124557 50 7 12.0 17.0 0.00 0.01 0.00 83 1022.9
20260510124047 50 36 12.0 17.0 0.00 0.01 0.00 83 1022.7
20260510123547 50 41 12.0 17.0 0.00 0.01 0.00 82 1022.4
20260510123110 50 345 12.0 17.0 0.00 0.01 0.00 82 1022.2
20260510122547 50 6 12.0 16.0 0.00 0.01 0.00 81 1022.0
20260510122047 50 12 12.0 18.0 0.00 0.01 0.00 80 1021.8
20260510121551 51 351 10.0 21.0 0.00 0.01 0.00 78 1021.7
20260510121047 51 7 14.0 22.0 0.00 0.01 0.00 77 1021.5
20260510120547 51 357 15.0 22.0 0.00 0.01 0.00 77 1021.3
20260510120052 51 342 14.0 22.0 0.00 0.01 0.00 76 1021.1
20260510115550 51 347 13.0 22.0 0.00 0.01 0.00 75 1021.1
20260510115047 51 14 16.0 22.0 0.00 0.01 0.00 73 1021.0
20260510114551 52 14 11.0 22.0 0.00 0.01 0.00 72 1020.8
20260510114047 52 14 10.0 22.0 0.00 0.01 0.00 72 1021.0
20260510113548 53 8 13.0 22.0 0.00 0.01 0.00 72 1020.9
20260510113053 53 12 9.0 17.0 0.00 0.01 0.00 72 1020.8
20260510112548 53 20 2.0 11.0 0.00 0.01 0.00 70 1020.3
20260510112048 53 47 4.0 13.0 0.00 0.01 0.00 69 1019.9
20260510111559 53 101 4.0 13.0 0.00 0.01 0.00 68 1019.6
20260510111048 53 72 5.0 20.0 0.00 0.01 0.00 67 1019.2
20260510110549 54 41 10.0 20.0 0.00 0.01 0.00 66 1019.1
20260510110052 54 86 10.0 15.0 0.00 0.01 0.00 65 1018.7
20260510105548 53 88 8.0 15.0 0.00 0.01 0.00 65 1018.8
20260510105047 54 82 4.0 10.0 0.00 0.01 0.00 65 1018.7
20260510104554 54 68 5.0 11.0 0.00 0.01 0.00 65 1018.8
20260510104049 54 108 5.0 12.0 0.00 0.01 0.00 65 1018.8
20260510103547 54 43 5.0 12.0 0.00 0.01 0.00 65 1018.8
20260510103058 54 122 6.0 12.0 0.00 0.01 0.00 65 1019.1
20260510102548 54 62 2.0 10.0 0.00 0.01 0.00 65 1019.5
20260510102049 54 16 3.0 10.0 0.00 0.01 0.00 64 1019.7
20260510101552 54 72 3.0 9.0 0.00 0.01 0.00 65 1019.7
20260510101048 54 110 3.0 12.0 0.00 0.01 0.00 64 1019.6
20260510100549 54 94 4.0 12.0 0.00 0.01 0.00 64 1019.5
20260510100055 54 117 2.0 10.0 0.00 0.01 0.00 65 1019.3
20260510095548 55 44 3.0 8.0 0.00 0.01 0.00 65 1019.2
20260510095048 55 70 2.0 10.0 0.00 0.01 0.00 64 1019.2
20260510094553 55 80 4.0 10.0 0.00 0.01 0.00 64 1019.2
20260510094047 55 59 4.0 10.0 0.00 0.01 0.00 65 1019.1
20260510093548 55 102 4.0 10.0 0.00 0.01 0.00 65 1019.0
20260510093051 55 248 5.0 13.0 0.00 0.01 0.00 64 1018.8
20260510092548 55 342 4.0 14.0 0.00 0.01 0.00 64 1018.7
20260510092047 56 87 4.0 17.0 0.00 0.01 0.00 64 1018.4
20260510091552 56 67 6.0 17.0 0.00 0.01 0.00 64 1018.5
20260510091047 56 32 6.0 15.0 0.00 0.01 0.00 64 1018.6
20260510090547 56 23 7.0 15.0 0.00 0.01 0.00 64 1018.4
20260510090057 55 34 6.0 14.0 0.00 0.01 0.00 65 1018.3
20260510085552 56 86 8.0 18.0 0.00 0.01 0.00 65 1018.1
20260510085048 55 41 8.0 18.0 0.00 0.01 0.00 65 1018.1
20260510084550 55 11 9.0 18.0 0.00 0.01 0.00 65 1018.2
20260510084048 55 20 6.0 15.0 0.00 0.01 0.00 66 1018.4
20260510083548 55 23 8.0 17.0 0.00 0.01 0.00 66 1018.3
20260510083056 55 20 9.0 17.0 0.00 0.01 0.00 66 1018.2
20260510082548 55 65 8.0 17.0 0.00 0.01 0.00 66 1018.2
20260510082048 55 33 9.0 22.0 0.00 0.01 0.00 67 1018.0
20260510081553 55 16 10.0 22.0 0.00 0.01 0.00 67 1017.9
20260510081048 55 56 9.0 22.0 0.00 0.01 0.00 68 1018.1
20260510080548 55 23 7.0 13.0 0.00 0.01 0.00 69 1018.1
20260510080050 55 13 6.0 12.0 0.00 0.01 0.00 69 1018.2
20260510075547 55 39 4.0 12.0 0.00 0.01 0.00 69 1018.3
20260510075049 55 53 6.0 15.0 0.00 0.01 0.00 69 1018.5
20260510074549 55 2 7.0 15.0 0.00 0.01 0.00 69 1018.5
20260510074048 55 18 6.0 14.0 0.00 0.01 0.00 70 1018.6
20260510073548 55 31 5.0 15.0 0.00 0.01 0.00 70 1018.7
20260510073112 55 32 6.0 16.0 0.00 0.01 0.00 70 1018.6
20260510072549 55 49 8.0 16.0 0.00 0.01 0.00 70 1018.6
20260510072048 55 39 4.0 15.0 0.00 0.01 0.00 70 1018.7
20260510071604 55 30 7.0 14.0 0.00 0.01 0.00 71 1018.7
20260510071048 55 66 6.0 13.0 0.00 0.01 0.00 71 1018.5
20260510070549 55 44 6.0 17.0 0.00 0.01 0.00 72 1018.4
20260510070051 55 40 5.0 17.0 0.00 0.01 0.00 73 1018.4
20260510065552 55 55 6.0 18.0 0.00 0.01 0.00 74 1018.3
20260510065047 55 46 5.0 18.0 0.00 0.01 0.00 75 1018.2
20260510064602 55 25 10.0 18.0 0.00 0.01 0.00 77 1017.9
20260510064049 55 35 10.0 19.0 0.00 0.01 0.00 79 1018.0
20260510063548 55 63 11.0 19.0 0.00 0.01 0.00 80 1018.0
20260510063050 55 19 9.0 15.0 0.00 0.01 0.00 80 1017.9
20260510062548 55 13 9.0 15.0 0.00 0.01 0.00 80 1017.6
20260510062049 55 34 7.0 14.0 0.00 0.01 0.00 80 1017.3
20260510061555 54 63 6.0 10.0 0.00 0.01 0.00 81 1016.5
20260510061048 54 27 3.0 9.0 0.00 0.01 0.00 81 1016.2
20260510060548 54 176 2.0 8.0 0.00 0.01 0.00 81 1016.0
20260510060049 54 27 3.0 7.0 0.00 0.01 0.00 81 1015.9
20260510055547 54 53 1.0 7.0 0.00 0.01 0.00 81 1015.7
20260510055048 54 0 0.0 8.0 0.00 0.01 0.00 81 1015.6
20260510054551 54 0 2.0 8.0 0.00 0.01 0.00 81 1015.4
20260510054047 54 30 3.0 9.0 0.00 0.01 0.00 81 1015.2
20260510053547 54 41 3.0 9.0 0.00 0.01 0.00 81 1015.1
20260510053054 54 94 2.0 8.0 0.00 0.01 0.00 80 1014.9
20260510052548 54 82 3.0 9.0 0.00 0.01 0.00 79 1015.0
20260510052048 54 25 3.0 9.0 0.00 0.01 0.00 79 1014.9
20260510051557 54 354 3.0 8.0 0.00 0.01 0.00 78 1014.9
20260510051047 54 65 1.0 6.0 0.00 0.01 0.00 77 1014.9
20260510050547 55 62 0.0 4.0 0.00 0.01 0.00 76 1014.9
20260510050056 55 0 0.0 4.0 0.00 0.01 0.00 75 1014.7
20260510045548 56 0 1.0 5.0 0.00 0.01 0.01 75 1014.7
20260510045047 56 29 1.0 5.0 0.00 0.01 0.01 74 1014.3
20260510044553 56 0 2.0 5.0 0.00 0.01 0.01 73 1014.2
20260510044051 57 0 0.0 4.0 0.00 0.01 0.01 73 1014.3
20260510043547 57 39 1.0 4.0 0.00 0.01 0.01 73 1014.4
20260510043105 58 74 1.0 6.0 0.00 0.01 0.01 72 1014.5
20260510042548 58 77 2.0 6.0 0.00 0.01 0.01 72 1014.5
20260510042048 58 102 3.0 6.0 0.00 0.01 0.01 72 1014.4
20260510041556 58 91 2.0 5.0 0.00 0.01 0.01 71 1014.2
20260510041048 59 83 2.0 7.0 0.00 0.01 0.01 71 1014.0
20260510040550 59 105 1.0 9.0 0.00 0.01 0.01 70 1013.9
20260510035548 60 103 4.0 7.0 0.00 0.01 0.01 70 1013.6
20260510035048 60 95 3.0 8.0 0.00 0.01 0.01 70 1013.5
20260510034551 61 86 4.0 9.0 0.00 0.01 0.01 69 1013.2
20260510034045 61 100 6.0 11.0 0.00 0.01 0.01 68 1013.1
20260510033548 62 74 7.0 13.0 0.00 0.01 0.01 67 1012.9
20260510033052 62 87 8.0 14.0 0.00 0.01 0.01 67 1012.7
20260510032545 63 86 9.0 14.0 0.00 0.01 0.01 66 1012.7
20260510032048 63 53 8.0 14.0 0.00 0.01 0.01 65 1012.4
20260510031556 64 77 8.0 12.0 0.00 0.01 0.01 64 1012.3
20260510031048 64 91 4.0 12.0 0.00 0.01 0.01 64 1012.3
20260510030547 64 71 5.0 12.0 0.00 0.01 0.01 63 1012.1
20260510030051 65 89 6.0 14.0 0.00 0.01 0.01 61 1011.9
20260510025547 65 88 1.0 19.0 0.00 0.01 0.01 58 1011.8
20260510025049 65 43 11.0 19.0 0.00 0.01 0.01 59 1011.4
20260510024551 65 86 13.0 19.0 0.00 0.01 0.01 58 1010.7
20260510024048 65 98 0.0 4.0 0.00 0.01 0.01 56 1010.5
20260510023546 65 0 0.0 4.0 0.00 0.01 0.01 56 1010.1
20260510023049 66 0 0.0 0.0 0.00 0.01 0.01 54 1009.9
20260510022549 67 0 0.0 6.0 0.00 0.01 0.01 51 1009.7
20260510022047 67 0 3.0 7.0 0.00 0.01 0.01 49 1009.6
20260510021554 68 0 4.0 7.0 0.00 0.01 0.01 47 1009.5
20260510021044 69 358 5.0 7.0 0.00 0.01 0.01 45 1009.1
20260510020547 70 355 5.0 10.0 0.00 0.01 0.01 43 1009.0
20260510020051 71 353 6.0 10.0 0.00 0.01 0.01 40 1008.7
20260510015548 72 10 7.0 12.0 0.00 0.01 0.01 37 1008.6
20260510015046 73 328 7.0 13.0 0.00 0.01 0.01 35 1008.4
20260510014550 74 343 9.0 13.0 0.00 0.01 0.01 35 1008.3
20260510014048 74 319 8.0 11.0 0.00 0.01 0.01 34 1008.3
20260510013552 75 323 8.0 13.0 0.00 0.01 0.01 33 1008.1
20260510013051 75 322 8.0 13.0 0.00 0.01 0.01 33 1007.9
20260510012548 76 329 9.0 12.0 0.00 0.01 0.01 32 1007.8
20260510012048 77 325 8.0 12.0 0.00 0.01 0.01 32 1007.7
20260510011551 78 336 7.0 10.0 0.00 0.01 0.01 31 1007.4
20260510011045 79 343 6.0 13.0 0.00 0.01 0.01 31 1007.4
20260510010547 80 336 9.0 14.0 0.00 0.01 0.01 29 1007.3
20260510010059 81 310 8.0 14.0 0.00 0.01 0.01 29 1007.2
20260510005545 81 11 10.0 12.0 0.00 0.01 0.01 28 1007.1
20260510005049 82 345 8.0 12.0 0.00 0.01 0.01 28 1007.2
20260510004549 83 326 6.0 12.0 0.00 0.01 0.01 27 1007.1
20260510004051 84 295 2.0 3.0 0.00 0.01 0.01 30 1007.2
20260510003550 84 229 0.0 1.0 0.00 0.01 0.01 30 1007.1
20260510003057 84 0 0.0 0.0 0.00 0.01 0.01 29 1007.2
20260510002551 85 0 0.0 0.0 0.00 0.01 0.01 29 1007.2
20260510002047 85 0 0.0 0.0 0.00 0.01 0.01 27 1007.2
20260510001554 84 0 0.0 5.0 0.00 0.01 0.01 29 1007.2
20260510001047 83 0 0.0 5.0 0.00 0.01 0.01 29 1007.2
20260510000548 83 0 4.0 5.0 0.00 0.01 0.01 29 1007.2
20260510000055 82 0 0.0 7.0 0.00 0.01 0.01 34 1007.1
20260509235548 81 0 2.0 15.0 0.00 0.01 0.01 33 1007.2
20260509235049 79 264 8.0 15.0 0.00 0.01 0.01 33 1007.0
20260509234548 78 213 9.0 15.0 0.00 0.01 0.01 37 1007.0
20260509234048 78 162 5.0 8.0 0.00 0.01 0.01 39 1007.1
20260509233553 77 0 3.0 9.0 0.00 0.01 0.01 39 1007.3
20260509233053 77 187 5.0 9.0 0.00 0.01 0.01 39 1007.3
20260509232548 77 160 5.0 11.0 0.00 0.01 0.01 39 1007.3
20260509232048 78 164 6.0 16.0 0.00 0.01 0.01 41 1007.3
20260509231554 78 193 8.0 16.0 0.00 0.01 0.01 39 1007.3
20260509231049 79 143 12.0 16.0 0.00 0.01 0.01 37 1007.3
20260509230552 79 171 10.0 14.0 0.00 0.01 0.01 39 1007.3
20260509230056 79 165 8.0 12.0 0.00 0.01 0.01 40 1007.3
20260509225549 80 155 8.0 14.0 0.00 0.01 0.01 37 1007.3
20260509225050 81 158 9.0 14.0 0.00 0.01 0.01 35 1007.3
20260509224558 82 162 10.0 12.0 0.00 0.01 0.01 36 1007.2
20260509224047 82 154 8.0 12.0 0.01 0.01 0.01 35 1007.3
20260509223551 82 158 7.0 12.0 0.01 0.01 0.01 33 1007.2
20260509223059 81 158 5.0 9.0 0.01 0.01 0.01 36 1007.1
20260509222552 79 134 0.0 9.0 0.01 0.01 0.01 39 1007.2
20260509222050 77 193 5.0 13.0 0.01 0.01 0.01 43 1007.1
20260509221603 76 180 6.0 13.0 0.01 0.01 0.01 46 1007.2
20260509221050 76 160 8.0 13.0 0.01 0.01 0.01 42 1007.4
20260509220549 75 128 5.0 13.0 0.01 0.01 0.01 38 1007.1
20260509220052 74 151 7.0 14.0 0.01 0.01 0.01 45 1006.9
20260509215549 73 242 8.0 14.0 0.01 0.01 0.01 43 1007.0
20260509215049 74 237 10.0 24.0 0.01 0.01 0.01 43 1007.5
20260509214559 76 265 13.0 24.0 0.01 0.01 0.01 43 1007.7
20260509214048 80 270 6.0 10.0 0.00 0.00 0.00 34 1007.8
20260509213551 81 195 4.0 7.0 0.00 0.00 0.00 29 1007.2
20260509213053 81 155 4.0 10.0 0.00 0.00 0.00 29 1007.1
20260509212547 82 160 7.0 17.0 0.00 0.00 0.00 28 1007.1
20260509212050 83 157 8.0 17.0 0.00 0.00 0.00 28 1007.2
20260509211555 84 195 8.0 17.0 0.00 0.00 0.00 26 1007.3
20260509211047 84 197 10.0 19.0 0.00 0.00 0.00 25 1007.5
20260509210547 85 160 12.0 19.0 0.00 0.00 0.00 24 1007.5
20260509210107 85 188 12.0 19.0 0.00 0.00 0.00 23 1007.6
20260509205546 86 198 11.0 21.0 0.00 0.00 0.00 23 1007.7
20260509205048 86 207 13.0 25.0 0.00 0.00 0.00 23 1007.8
20260509204557 87 245 10.0 25.0 0.00 0.00 0.00 22 1007.9
20260509204048 87 207 14.0 25.0 0.00 0.00 0.00 23 1008.1
20260509203549 86 238 13.0 21.0 0.00 0.00 0.00 23 1008.2
20260509203049 86 199 12.0 21.0 0.00 0.00 0.00 23 1008.2
20260509202548 87 205 8.0 21.0 0.00 0.00 0.00 24 1008.2
20260509202046 87 218 12.0 22.0 0.00 0.00 0.00 24 1008.6
20260509201558 87 217 12.0 22.0 0.00 0.00 0.00 23 1008.6
20260509201048 86 217 14.0 22.0 0.00 0.00 0.00 24 1008.6
20260509200547 86 166 12.0 23.0 0.00 0.00 0.00 25 1008.7
20260509200058 86 189 16.0 23.0 0.00 0.00 0.00 25 1008.8
20260509195548 86 203 13.0 22.0 0.00 0.00 0.00 26 1008.9
20260509195048 85 245 13.0 22.0 0.00 0.00 0.00 25 1009.0
20260509194550 85 213 15.0 22.0 0.00 0.00 0.00 26 1009.3
20260509194046 85 210 13.0 21.0 0.00 0.00 0.00 26 1009.2
20260509193545 85 220 13.0 23.0 0.00 0.00 0.00 26 1009.3
20260509193052 85 218 12.0 25.0 0.00 0.00 0.00 27 1009.5
20260509192550 84 212 17.0 25.0 0.00 0.00 0.00 27 1009.4
20260509192048 85 233 12.0 21.0 0.00 0.00 0.00 26 1009.4
20260509191551 85 190 12.0 24.0 0.00 0.00 0.00 26 1009.5
20260509191050 85 170 16.0 24.0 0.00 0.00 0.00 25 1009.6
20260509190547 84 230 14.0 25.0 0.00 0.00 0.00 26 1009.7
20260509190106 84 195 14.0 25.0 0.00 0.00 0.00 26 1010.0
20260509185548 84 208 16.0 25.0 0.00 0.00 0.00 26 1010.0
20260509185048 84 215 15.0 25.0 0.00 0.00 0.00 26 1010.0
20260509184551 84 235 12.0 25.0 0.00 0.00 0.00 26 1010.1
20260509184047 83 216 15.0 25.0 0.00 0.00 0.00 26 1010.3
20260509183548 83 210 11.0 22.0 0.00 0.00 0.00 26 1010.3
20260509183054 83 187 15.0 22.0 0.00 0.00 0.00 25 1010.4
20260509182546 83 207 13.0 20.0 0.00 0.00 0.00 25 1010.4
20260509182048 82 233 11.0 21.0 0.00 0.00 0.00 27 1010.4
20260509181555 82 210 11.0 21.0 0.00 0.00 0.00 29 1010.4
20260509181048 83 206 12.0 21.0 0.00 0.00 0.00 28 1010.7
20260509180548 83 195 12.0 19.0 0.00 0.00 0.00 28 1010.7
20260509180100 82 200 11.0 19.0 0.00 0.00 0.00 30 1010.7
20260509175548 81 210 7.0 19.0 0.00 0.00 0.00 30 1010.8
20260509175052 81 206 11.0 20.0 0.00 0.00 0.00 30 1010.9
20260509174553 82 191 10.0 20.0 0.00 0.00 0.00 30 1011.2
20260509174049 81 191 12.0 20.0 0.00 0.00 0.00 29 1011.3
20260509173544 81 231 11.0 20.0 0.00 0.00 0.00 31 1011.4
20260509173051 81 207 12.0 20.0 0.00 0.00 0.00 30 1011.3
20260509172544 79 219 10.0 18.0 0.00 0.00 0.00 32 1011.3
20260509172045 79 236 9.0 18.0 0.00 0.00 0.00 31 1011.4
20260509171554 79 225 12.0 18.0 0.00 0.00 0.00 31 1011.6
20260509171047 79 203 12.0 22.0 0.00 0.00 0.00 31 1011.7
20260509170548 79 198 14.0 22.0 0.00 0.00 0.00 31 1011.7
20260509170059 79 209 13.0 22.0 0.00 0.00 0.00 32 1011.9
20260509165545 80 214 11.0 20.0 0.00 0.00 0.00 31 1011.8
20260509165053 79 200 10.0 18.0 0.00 0.00 0.00 33 1011.8
20260509164557 78 196 10.0 17.0 0.00 0.00 0.00 33 1011.9
20260509164048 78 224 11.0 18.0 0.00 0.00 0.00 34 1011.8
20260509163544 78 238 11.0 18.0 0.00 0.00 0.00 34 1011.9
20260509163053 78 225 12.0 18.0 0.00 0.00 0.00 33 1012.1
20260509162548 78 231 10.0 18.0 0.00 0.00 0.00 34 1012.1
20260509162047 78 223 12.0 18.0 0.00 0.00 0.00 34 1012.0
20260509161559 77 205 11.0 17.0 0.00 0.00 0.00 35 1012.1
20260509161048 77 173 11.0 17.0 0.00 0.00 0.00 34 1012.2
20260509160545 77 227 10.0 19.0 0.00 0.00 0.00 35 1012.1
20260509160053 76 213 12.0 22.0 0.00 0.00 0.00 35 1012.3
20260509155545 76 242 14.0 22.0 0.00 0.00 0.00 33 1012.3
20260509155048 76 214 12.0 18.0 0.00 0.00 0.00 34 1012.3
20260509154559 75 224 11.0 18.0 0.00 0.00 0.00 35 1012.3
20260509154048 75 175 11.0 19.0 0.00 0.00 0.00 35 1012.3
20260509153550 74 201 11.0 19.0 0.00 0.00 0.00 36 1012.4
20260509153055 74 226 12.0 20.0 0.00 0.00 0.00 35 1012.5
20260509152548 74 226 14.0 20.0 0.00 0.00 0.00 37 1012.7
20260509152050 73 220 12.0 22.0 0.00 0.00 0.00 38 1012.6
20260509151552 73 214 13.0 22.0 0.00 0.00 0.00 38 1012.8
20260509151048 72 205 13.0 22.0 0.00 0.00 0.00 39 1012.9
20260509150548 72 212 12.0 19.0 0.00 0.00 0.00 39 1013.0
20260509150053 71 243 12.0 18.0 0.00 0.00 0.00 40 1013.0
20260509145550 71 238 14.0 18.0 0.00 0.00 0.00 41 1013.1
20260509145049 70 247 11.0 18.0 0.00 0.00 0.00 42 1013.1
20260509144550 70 210 12.0 18.0 0.00 0.00 0.00 42 1013.1
20260509144048 69 186 14.0 18.0 0.00 0.00 0.00 43 1013.1
20260509143549 68 232 14.0 18.0 0.00 0.00 0.00 44 1013.2
20260509143052 68 232 13.0 18.0 0.00 0.00 0.00 45 1013.2
20260509142549 67 236 12.0 20.0 0.00 0.00 0.00 47 1013.2
20260509142053 66 232 11.0 20.0 0.00 0.00 0.00 47 1013.2
20260509141550 66 236 13.0 20.0 0.00 0.00 0.00 46 1013.2
20260509141053 66 232 12.0 21.0 0.00 0.00 0.00 47 1013.1
20260509140547 65 221 13.0 21.0 0.00 0.00 0.00 49 1013.2
20260509140100 64 221 14.0 21.0 0.00 0.00 0.00 49 1013.0
20260509135549 63 231 12.0 17.0 0.00 0.00 0.00 53 1013.0
20260509135047 62 214 11.0 17.0 0.00 0.00 0.00 54 1013.0